DW9608 Weather Reports


time (UTC)temp
C
wind
direction
speed
KPH
gust
KPH
rain 1hr
cm
rain 24hr
cm
rain mn
cm
humidity
%
barometer
mb
20260506121351 7 0.0 0.0 0.00 3.02 0.58 96 1012.3
20260506120332 7 0.0 0.0 0.00 3.02 0.58 96 1011.9
20260506115250 7 0.0 0.0 0.00 3.02 0.58 96 1012.1
20260506114225 7 0.0 0.0 0.00 3.02 0.58 96 1011.7
20260506113201 7 0.0 0.0 0.00 3.02 0.58 96 1011.7
20260506112125 6 0.0 0.0 0.00 3.02 0.58 96 1011.6
20260506111049 6 0.0 0.0 0.00 3.02 0.58 96 1011.4
20260506110024 6 0.0 0.0 0.00 3.02 0.58 96 1011.2
20260506105022 6 0.0 0.0 0.00 3.05 0.58 96 1010.7
20260506103942 6 0.0 0.0 0.00 3.05 0.58 96 1011.2
20260506102857 6 0.0 0.0 0.00 3.05 0.58 95 1011.0
20260506101820 6 0.0 0.0 0.03 3.05 0.58 95 1010.5
20260506100750 6 0.0 0.0 0.03 3.05 0.58 95 1010.5
20260506095721 6 0.0 0.0 0.05 3.05 0.58 95 1010.0
20260506094651 6 0.0 0.0 0.05 3.05 0.58 95 1010.3
20260506093622 6 135 3.2 4.8 0.05 3.05 0.58 95 1010.9
20260506092622 -17 0.0 0.0 0.03 3.02 0.56 1011.4
20260506091556 7 135 1.6 4.8 0.05 3.02 0.56 95 1011.4
20260506090517 7 0.0 0.0 0.08 3.00 0.53 95 1010.8
20260506085420 -17 0.0 0.0 0.13 3.00 0.53 1010.7
20260506084356 7 0.0 0.0 0.15 3.00 0.53 95 1010.7
20260506083353 -17 0.0 0.0 0.18 3.00 0.53 1010.7
20260506082305 -17 0.0 0.0 0.18 2.97 0.51 1010.7
20260506081226 7 0.0 0.0 0.20 2.95 0.48 95 1010.9
20260506080201 7 0.0 0.0 0.15 2.90 0.43 95 1011.0
20260506073017 7 0.0 0.0 0.08 2.79 0.33 94 1010.7
20260506071956 7 0.0 0.0 0.10 2.79 0.33 94 1010.7
20260506070952 7 0.0 0.0 0.05 2.74 0.28 94 1010.7
20260506061713 -17 0.0 0.0 0.08 2.69 0.23 1010.8
20260506060622 7 0.0 0.0 0.10 2.69 0.23 93 1010.9
20260506051352 7 135 1.6 3.2 0.10 2.59 0.13 94 1011.0
20260506050322 7 135 1.6 3.2 0.13 2.59 0.13 94 1011.0
20260506044229 -17 0.0 0.0 0.13 2.54 0.08 1011.4
20260506043150 8 0.0 0.0 0.13 2.51 0.05 94 1011.4
20260506042121 -17 0.0 0.0 0.13 2.49 0.03 1011.4
20260506041105 -17 0.0 0.0 0.15 2.49 0.03 1011.6
20260506040047 8 0.0 0.0 0.18 2.46 0.00 94 1011.7
20260506035328 8 0.0 0.0 0.23 2.44 2.44 94 1011.9
20260506034240 8 0.0 1.6 0.23 2.41 2.41 94 1011.9
20260506033202 -17 0.0 0.0 0.28 2.39 2.39 1011.9
20260506032122 8 0.0 0.0 0.33 2.36 2.36 94 1011.9
20260506031109 -17 0.0 0.0 0.38 2.34 2.34 1011.9
20260506030021 8 0.0 0.0 0.41 2.29 2.29 94 1012.1
20260506024956 8 0.0 0.0 0.36 2.21 2.21 94 1012.1
20260506023934 8 0.0 0.0 0.36 2.13 2.13 94 1011.7
20260506022920 8 0.0 0.0 0.36 2.08 2.08 94 1011.4
20260506021818 9 0.0 0.0 0.33 2.03 2.03 94 1011.6
20260506020754 9 0.0 0.0 0.25 1.93 1.93 94 1011.4
20260506015724 -17 0.0 0.0 0.20 1.88 1.88 1011.2
20260506014651 -17 135 1.6 1.6 0.15 1.83 1.83 1011.2
20260506013633 9 0.0 0.0 0.13 1.75 1.75 94 1011.2
20260506012546 -17 0.0 0.0 0.15 1.73 1.73 1011.2
20260506011526 -17 0.0 0.0 0.20 1.70 1.70 1011.2
20260506010456 -17 0.0 0.0 0.23 1.68 1.68 1011.2
20260506005420 -17 0.0 0.0 0.25 1.68 1.68 1010.9
20260506004411 9 135 3.2 4.8 0.23 1.65 1.65 94 1010.9
20260506003325 9 135 1.6 3.2 0.18 1.60 1.60 93 1011.0
20260506002246 9 1.6 3.2 0.10 1.52 1.52 93 1010.7
20260506001227 9 113 1.6 3.2 0.08 1.47 1.47 93 1010.7
20260506000220 9 0.0 0.0 0.05 1.42 1.42 93 1010.7
20260505235117 9 0.0 0.0 0.10 1.42 1.42 93 1010.7
20260505234059 10 113 1.6 1.6 0.25 1.42 1.42 93 1010.7
20260505233045 10 113 0.0 1.6 0.41 1.42 1.42 92 1010.9
20260505232005 10 113 0.0 1.6 0.43 1.42 1.42 92 1010.9
20260505230923 10 0.0 0.0 0.46 1.40 1.40 91 1011.2
20260505225850 10 0.0 1.6 0.46 1.37 1.37 91 1011.2
20260505224836 10 113 1.6 4.8 0.43 1.30 1.30 91 1011.2
20260505223753 10 260 3.2 3.2 0.25 1.07 1.07 91 1010.7
20260505222718 11 113 0.0 1.6 0.25 1.02 1.02 91 1010.7
20260505221658 11 158 0.0 1.6 0.28 0.99 0.99 91 1010.7
20260505220641 11 0.0 0.0 0.28 0.94 0.94 90 1010.5
20260505215546 12 158 1.6 3.2 0.41 0.91 0.91 89 1010.4
20260505214518 12 158 1.6 3.2 0.41 0.89 0.84 89 1010.3
20260505213454 12 158 1.6 3.2 0.43 0.84 0.79 90 1010.4
20260505212511 13 0.0 1.6 0.46 0.79 0.74 92 1010.1
20260505211353 13 0.0 0.0 0.46 0.74 0.69 92 1010.3
20260505205300 13 0.0 0.0 0.41 0.53 0.48 91 1010.3
20260505204247 13 113 0.0 1.6 0.33 0.46 0.41 90 1010.1
20260505203211 14 0.0 0.0 0.30 0.38 0.33 90 1010.1
20260505202127 14 0.0 0.0 0.23 0.30 0.25 89 1010.2
20260505201106 14 0.0 0.0 0.13 0.20 0.15 87 1010.4
20260505200029 14 0.0 0.0 0.08 0.15 0.10 86 1010.2
20260505194953 15 0.0 0.0 0.05 0.13 0.08 85 1010.4
20260505194042 15 0.0 0.0 0.03 0.10 0.05 84 1010.4
20260505192859 15 113 3.2 4.8 0.00 0.08 0.03 79 1010.3
20260505191833 16 113 3.2 3.2 0.00 0.08 0.03 77 1010.3
20260505190747 17 113 3.2 3.2 0.00 0.08 0.03 77 1010.3
20260505185727 17 113 1.6 3.2 0.00 0.08 0.03 74 1010.3
20260505184651 17 113 3.2 4.8 0.00 0.08 0.03 74 1010.4
20260505183640 17 113 3.2 3.2 0.00 0.08 0.03 74 1010.3
20260505182559 17 113 1.6 1.6 0.00 0.08 0.03 74 1010.3
20260505181523 18 0.0 0.0 0.00 0.08 0.03 72 1010.3
20260505180500 18 158 1.6 3.2 0.00 0.08 0.03 73 1010.2
20260505175422 18 158 3.2 6.4 0.00 0.08 0.03 72 1010.2
20260505174400 17 257 3.2 4.8 0.00 0.08 0.03 70 1010.2
20260505173318 17 158 1.6 4.8 0.00 0.08 0.03 70 1010.2
20260505172259 17 113 3.2 4.8 0.00 0.08 0.03 70 1010.2
20260505171227 18 239 4.8 6.4 0.00 0.08 0.03 68 1010.1
20260505170153 18 113 3.2 4.8 0.00 0.08 0.03 68 1010.1
20260505165203 18 1.6 3.2 0.00 0.08 0.03 68 1010.1
20260505164056 18 264 6.4 6.4 0.00 0.08 0.03 65 1009.9
20260505163033 18 158 3.2 4.8 0.00 0.08 0.03 66 1009.9
20260505161959 18 113 4.8 6.4 0.00 0.08 0.03 65 1009.9
20260505160923 19 113 3.2 3.2 0.00 0.08 0.03 65 1009.9
20260505152727 20 135 3.2 6.4 0.00 0.08 0.03 60 1008.8
20260505151651 21 113 4.8 4.8 0.00 0.08 0.03 61 1008.7
20260505150649 20 113 3.2 3.2 0.00 0.08 0.03 61 1008.8
20260505140327 20 75 3.2 8.0 0.00 0.08 0.03 68 1008.6
20260505130131 16 158 1.6 3.2 0.00 0.08 0.03 77 1008.9
20260505124956 16 158 1.6 4.8 0.00 0.08 0.03 77 1008.8
20260505123918 16 135 1.6 3.2 0.00 0.08 0.03 77 1008.8
20260505122858 15 135 1.6 4.8 0.00 0.08 0.03 77 1008.6